#timestamp,LO_Frequency,Hit,StdDev 
1669492815.2,286046999.8,N
1669492835.0,286046998.7,N
1669492835.9,286046998.7,N
1669492855.8,286047000.0,N
1669492875.6,286046999.8,N
1669492895.4,286047000.6,N
1669492915.3,286046998.1,N
1669492935.1,286046998.8,N
1669492955.9,286046998.8,N
1669492975.7,286046998.4,N
1669492995.5,286046999.6,N
1669493015.4,286046997.4,N
1669493035.2,286046997.8,N
1669493055.0,286046998.7,N
1669493055.9,286046998.7,N
1669493075.8,286046998.8,N
1669493095.6,286046998.1,N
1669493115.5,286047001.1,N
1669493135.3,286047000.0,N
1669493155.1,286047001.3,N
1669493175.9,286047002.4,N
1669493195.7,286047000.1,N
1669493215.5,286047002.0,N
1669493235.4,286047002.7,N
1669493255.2,286046999.9,N
1669493275.1,286047002.7,N
1669493276.0,286047002.7,N
1669493295.8,286046998.8,N
1669493315.6,286046998.7,N
1669493335.5,286046996.6,N
1669493355.3,286046997.7,N
1669493375.2,286046999.5,N
1669493395.9,286047000.6,N
1669493415.7,286046998.6,N
1669493435.6,286046998.4,N
1669493455.4,286047000.6,N
1669493475.3,286047001.0,N
1669493495.1,286046999.7,N
1669493496.0,286046999.7,N
1669493515.8,286047002.1,N
1669493535.7,286047002.6,N
1669493555.5,286047001.6,N
1669493575.4,286047001.7,N
1669493595.2,286047002.1,N
1669493615.0,286047002.4,N
1669493615.9,286047002.4,N
1669493635.8,286047002.1,N
1669493655.6,286047000.4,N
1669493675.5,286046999.7,N
1669493695.3,286047002.3,N
1669493715.1,286047002.7,N
1669493735.9,286047002.0,N
1669493755.2,286046999.9,N
1669493775.1,286046999.9,N
1669493776.0,286046999.9,N
1669493795.8,286047000.5,N
1669493815.7,286046998.2,N
1669493835.5,286047000.7,N
1669493855.3,286047000.5,N
1669493875.2,286047002.8,N
1669493895.0,286047001.0,N
1669493895.9,286047001.0,N
1669493915.8,286047000.3,N
1669493935.6,286047000.2,N
1669493955.4,286047002.8,N
1669493975.3,286047002.6,N
1669493995.1,286046999.8,N
1669494015.8,286047002.3,N
1669494035.7,286047001.9,N
1669494055.5,286047002.4,N
1669494075.4,286047000.2,N
1669494095.2,286047000.4,N
1669494115.0,286047000.8,N
1669494115.9,286047000.8,N
1669494135.8,286046998.3,N
1669494155.6,286046998.6,N
1669494175.4,286046993.3,Y
1669494195.3,286046996.0,P
1669494215.1,286046996.9,N
1669494235.9,286046996.5,N
1669494255.7,286047000.8,N
1669494275.5,286047002.5,N
1669494295.4,286047000.6,N
1669494315.2,286047002.3,N
1669494335.0,286047000.9,N
1669494335.9,286047000.9,N
1669494355.8,286046999.0,N
1669494375.6,286047000.7,N
1669494395.5,286047001.2,N
1669494415.3,286047000.9,N
1669494435.1,286047000.4,N
1669494455.9,286047000.2,N
1669494475.7,286046999.9,N
1669494495.6,286047000.9,N
1669494515.4,286046999.7,N
1669494535.2,286047000.3,N
1669494555.1,286047001.9,N
1669494556.0,286047001.9,N
1669494575.8,286047001.8,N
1669494595.6,286047002.3,N
1669494615.5,286047002.5,N
1669494635.3,286047002.2,N
1669494655.2,286047001.7,N
1669494675.9,286047002.5,N
1669494695.7,286047000.3,N
1669494715.6,286047001.0,N
1669494735.4,286046998.9,N
1669494755.2,286047000.6,N
1669494775.1,286046999.2,N
1669494776.0,286046999.2,N
1669494795.8,286046999.6,N
1669494815.7,286046998.9,N
1669494835.5,286046999.1,N
1669494855.3,286047000.7,N
1669494875.2,286046999.8,N
1669494895.9,286047002.7,N
1669494915.7,286047000.0,N
1669494935.6,286047002.3,N
1669494955.4,286047000.3,N
1669494975.3,286047001.0,N
1669494995.1,286047000.7,N
1669494996.0,286047000.7,N
1669495015.8,286047001.2,N
1669495035.7,286047001.9,N
1669495055.5,286046999.7,N
1669495075.4,286047000.7,N
1669495095.2,286047000.8,N
1669495115.0,286046998.5,N
1669495115.9,286046998.5,N
1669495135.8,286047001.1,N
1669495155.6,286047000.5,N
1669495175.5,286047000.3,N
1669495195.7,286047000.0,N
1669495215.5,286047000.5,N
1669495235.4,286046999.7,N
1669495255.2,286047001.1,N
1669495275.0,286046998.2,N
1669495275.9,286046998.2,N
1669495295.8,286047000.7,N
1669495315.6,286046999.9,N
1669495335.4,286047001.6,N
1669495355.3,286047001.6,N
1669495375.1,286047003.6,Y
1669495395.9,286047004.2,P
1669495415.7,286047003.7,N
1669495435.5,286047002.5,N
1669495455.4,286047001.5,N
1669495475.2,286047001.7,N
1669495495.1,286047000.0,N
1669495496.0,286047000.0,N
1669495515.8,286046998.8,N
1669495535.6,286046998.6,N
1669495555.5,286046999.1,N
1669495575.3,286046996.6,N
1669495595.1,286047001.2,N
1669495615.9,286047000.1,N
1669495635.7,286047002.2,N
1669495655.6,286047002.2,N
1669495675.4,286047002.2,N
1669495695.2,286047001.0,N
1669495715.1,286046999.9,N
1669495716.0,286046999.9,N
1669495735.8,286047000.1,N
1669495755.6,286047002.7,N
1669495775.5,286047004.4,N
1669495795.3,286047003.5,N
1669495815.2,286047003.7,N
1669495835.9,286047004.4,N
1669495855.7,286047000.6,N
1669495875.6,286046998.4,N
1669495895.4,286046998.1,N
1669495915.2,286046999.4,N
1669495935.1,286047001.1,N
1669495936.0,286047001.1,N
1669495955.8,286047002.8,N
1669495975.7,286047002.8,N
1669495995.5,286046999.7,N
1669496015.3,286047000.2,N
1669496035.2,286047000.4,N
1669496055.0,286047000.8,N
1669496055.9,286047000.8,N
1669496075.8,286047001.3,N
1669496095.6,286046999.8,N
1669496115.4,286047000.8,N
1669496135.3,286046997.9,N
1669496155.1,286046996.4,N
1669496175.8,286046995.8,N
1669496195.7,286046997.6,N
1669496215.5,286046998.7,N
1669496235.4,286047000.7,N
1669496255.2,286046998.1,N
1669496275.0,286046999.9,N
1669496275.9,286046999.9,N
1669496295.8,286047002.0,N
1669496315.6,286047003.9,N
1669496335.5,286047001.6,N
1669496355.3,286047001.7,N
1669496375.1,286047004.4,N
1669496395.9,286047004.7,N
